Flag for U.S.A. Weather past 2 weeks in Eau Claire, Wisconsin, U.S.A.

Now
82 °F

Sunny.


Feels Like: 84 °F
Forecast: 62 / 74 °F
Wind: 15 mph from South

Location: Eau Claire County Airport

Current Time: Jul 5, 2015 at 7:04:46 PM

Latest Report: Jul 5, 2015 at 5:56 PM


Visibility: 10 mi

Pressure: 29.88 "Hg

Humidity: 56%

Dew point: 65 °F

Location of Eau ClaireLocation

Historic Weather in Eau Claire — Graph

°F

Eau Claire temperature yesterday

Maximum temperature yesterday: 83 °F (at 2:56 PM)
Minimum temperature yesterday: 60 °F (at 5:56 AM)
Average temperature yesterday: 72 °F

Past Weeks' High & Low Weather Summary

 TemperatureHumidityPressure
High85 °F (Jul 5, 3:56 PM)100% (Jun 29, 2:56 AM)30.11 "Hg (Jun 29, 2:56 AM)
Low47 °F (Jul 1, 4:56 AM)33% (Jun 27, 3:56 PM)29.50 "Hg (Jun 22, 10:56 AM)
Average68 °F72%29.93 "Hg
* Reported Jun 20 5:56 PM — Jul 5 5:56 PM, Eau Claire, Weather by CustomWeather, © 2015

Note: Actual official high and low records may vary slightly from our data, if they occured in-between our weather recording intervals... More about our weather records

Advertising

Eau Claire weather history for previous 24 hours

 ConditionsComfort  
Time TempWeatherWind HumidityBarometerVisibility
5:56 PM
Sun, Jul 5
82 °FSunny.15 mph56%29.88 "Hg10 mi
4:56 PM83 °FSunny.16 mph55%29.89 "Hg10 mi
3:56 PM85 °FPassing clouds.15 mph50%29.90 "Hg10 mi
2:56 PM84 °FSunny.14 mph51%29.92 "Hg10 mi
1:56 PM82 °FSunny.14 mph53%29.91 "Hg10 mi
12:56 PM82 °FSunny.10 mph53%29.92 "Hg10 mi
11:56 AM80 °FPassing clouds.14 mph56%29.94 "Hg10 mi
10:56 AM78 °FSunny.10 mph58%29.95 "Hg10 mi
9:56 AM76 °FSunny.12 mph62%29.96 "Hg10 mi
8:56 AM73 °FSunny.12 mph69%29.97 "Hg10 mi
7:56 AM69 °FSunny.10 mph73%29.96 "Hg10 mi
6:56 AM65 °FSunny.5 mph85%29.98 "Hg9 mi
5:56 AM62 °FClear.3 mph86%29.97 "Hg10 mi
4:56 AM65 °FClear.No wind85%29.96 "Hg10 mi
3:56 AM67 °FClear.8 mph81%29.94 "Hg10 mi
2:56 AM67 °FClear.8 mph85%29.93 "Hg9 mi
1:56 AM67 °FFog.6 mph87%29.95 "Hg6 mi
12:56 AM68 °FFog.No wind87%29.97 "Hg5 mi
11:56 PM
Sat, Jul 4
69 °FClear.3 mph84%29.95 "Hg5 mi
10:56 PM73 °FHaze.7 mph74%29.92 "Hg6 mi
9:56 PM74 °FClear.6 mph74%29.91 "Hg5 mi
8:56 PM76 °FHaze.7 mph67%29.90 "Hg5 mi
7:56 PM78 °FSunny.7 mph62%29.90 "Hg6 mi
Weather by CustomWeather, © 2015

See weather overviewHow to use our weather pages